OPS 4682 DEB, 15529

Orbit data source: Space-Track

OPS 4682 DEB, 15529 is space debris in LEO originally from a launch on Sat, 03 Apr 1965 UTC launched from the Air Force Western Test Range (AFWTR). Debris objects in space refer to the collection of defunct objects orbiting the Earth. Examples of debris include non-operational satellites, rocket bodies, and fragments generated from explosions, collisions, or faulty payload assembly.

Loading next visibility...
Identifier
15529, 1965-027S
Orbit
LEO
Country
Flag of USUS
Related business
Manufacturer
Unknown
Mission
Spacecraft
Bus & Motor
Unknown
Mass
Unknown
Launch date (UTC)
1965-04-03 (61 years ago)
Launch vehicle
Unknown
Launch site
Air Force Western Test Range (AFWTR)
Object type
Payload
Rocket body
Debris
Shape & HBR
Unknown shape, 0.1 m
Radar Cross Section
Medium (>0.1 m² and <1 m²)

Expand to show TLE details & history
Last TLE update: 5 days ago

TLE from 5 days ago
0 OPS 4682 DEB
1 15529U 65027S   26244.82767299  .00000831  00000-0  27563-2 0  9997
2 15529  90.2416   7.9536 0033710 134.7018  18.6360 12.99301317167031
Epoch: 2026-09-01T19:51Z
TLE epoch observation values (Epoch: 2026-09-01T19:51:50.946Z)
Latitude
26.57034°
Longitude
-90.87742°
Altitude
1,243.651 km
Speed
7.247 km/s
True Right ascension
12h 32m 17s
True Declination
26° 26' 30"
Sunlit
Object was in daylight at epoch
Visualization orbit readout
Latitude
Unknown
Longitude
Unknown
Altitude
Unknown
Speed
Unknown
Apparent Right ascension
Unknown
Apparent Declination
Unknown
Sunlit
N/A
Visualization observer readout
Local Sidereal Time
12:53:50
Azimuth
Unknown
Elevation
Unknown
Doppler factor
Unknown
Orbital elements
Apogee altitude
1,287.708 km
Perigee altitude
1,236.199 km
Semi-major axis
7,640.09 km
Eccentricity
0.00337
Inclination
90.2416°
RAAN
7.9536°
Arg. of periapsis
134.7018°
True anomaly
18.75993°
Mean anomaly
18.636°
Eccentric anomaly
18.69792°
Mean motion
3.25009 °/min
Orbital period
110.77 mins
BSTAR
0.0027563
Loading maneuver chart data...
Computing Atmospheric mass density...
Loading historical data...
Loading historical data...
Loading historical data...
Loading historical data...
Loading historical data...
Loading historical data...
Loading historical data...

Documentation

Showing up to 5 results
|